Time,TemperatureF,DewpointF,PressureIn,WindDirection,WindDirectionDegrees,WindSpeedMPH,WindSpeedGustMPH,Humidity,HourlyPrecipIn,Conditions,Clouds,dailyrainin,SoftwareType,DateUTC
2013-04-08 00:02:00,73.3,68.5,30.12,ESE,112,0.0,6.0,85,0.00,,---,0.00,VWS V14.00,2013-04-08 10:02:00,
2013-04-08 00:07:00,73.3,68.5,30.12,ESE,112,2.0,2.0,85,0.00,,---,0.00,VWS V14.00,2013-04-08 10:07:00,
2013-04-08 00:12:00,73.3,68.5,30.12,ESE,109,2.0,6.0,85,0.00,,---,0.00,VWS V14.00,2013-04-08 10:12:00,
2013-04-08 00:17:00,73.3,68.5,30.12,ESE,109,1.0,6.0,85,0.00,,---,0.00,VWS V14.00,2013-04-08 10:17:00,
2013-04-08 00:22:00,73.4,68.6,30.11,ESE,109,1.0,6.0,85,0.00,,---,0.00,VWS V14.00,2013-04-08 10:22:00,
2013-04-08 00:27:00,73.4,68.6,30.11,ESE,109,1.0,6.0,85,0.00,,---,0.00,VWS V14.00,2013-04-08 10:27:00,
2013-04-08 00:32:00,73.4,68.6,30.11,ESE,109,0.0,0.0,85,0.00,,---,0.00,VWS V14.00,2013-04-08 10:32:00,
2013-04-08 00:37:00,73.4,68.6,30.11,ESE,109,0.0,5.0,85,0.00,,---,0.00,VWS V14.00,2013-04-08 10:37:00,
2013-04-08 00:42:00,73.4,68.6,30.11,East,85,0.0,6.0,85,0.00,,---,0.00,VWS V14.00,2013-04-08 10:42:00,
2013-04-08 00:47:00,73.4,68.6,30.11,East,85,0.0,6.0,85,0.00,,---,0.00,VWS V14.00,2013-04-08 10:47:00,
2013-04-08 00:52:00,73.4,68.6,30.11,East,85,1.0,6.0,85,0.00,,---,0.00,VWS V14.00,2013-04-08 10:52:00,
2013-04-08 00:57:00,73.4,68.6,30.11,East,86,0.0,6.0,85,0.00,,---,0.00,VWS V14.00,2013-04-08 10:57:00,
2013-04-08 01:02:00,73.3,68.5,30.11,East,86,0.0,0.0,85,0.00,,---,0.00,VWS V14.00,2013-04-08 11:02:00,
2013-04-08 01:07:00,73.2,68.4,30.11,East,85,1.0,3.0,85,0.00,,---,0.00,VWS V14.00,2013-04-08 11:07:00,
2013-04-08 01:12:00,73.1,68.0,30.10,East,82,1.0,4.0,84,0.00,,---,0.00,VWS V14.00,2013-04-08 11:12:00,
2013-04-08 01:17:00,73.1,68.0,30.10,East,79,0.0,4.0,84,0.00,,---,0.00,VWS V14.00,2013-04-08 11:17:00,
2013-04-08 01:22:00,73.1,68.0,30.10,East,79,2.0,4.0,84,0.00,,---,0.00,VWS V14.00,2013-04-08 11:22:00,
2013-04-08 01:27:00,73.2,68.4,30.10,ESE,110,2.0,7.0,85,0.00,,---,0.00,VWS V14.00,2013-04-08 11:27:00,
2013-04-08 01:32:00,73.1,68.3,30.10,ENE,69,2.0,7.0,85,0.00,,---,0.00,VWS V14.00,2013-04-08 11:32:00,
2013-04-08 01:37:00,73.2,68.4,30.10,NE,53,0.0,7.0,85,0.00,,---,0.00,VWS V14.00,2013-04-08 11:37:00,
2013-04-08 01:42:00,73.2,68.4,30.10,NE,55,0.0,7.0,85,0.00,,---,0.00,VWS V14.00,2013-04-08 11:42:00,
2013-04-08 01:47:00,73.2,68.1,30.10,NE,55,4.0,7.0,84,0.00,,---,0.00,VWS V14.00,2013-04-08 11:47:00,
2013-04-08 01:52:00,73.2,68.1,30.10,NE,51,2.0,7.0,84,0.00,,---,0.00,VWS V14.00,2013-04-08 11:52:00,
2013-04-08 01:57:00,73.1,68.0,30.09,NE,51,0.0,7.0,84,0.00,,---,0.00,VWS V14.00,2013-04-08 11:57:00,
2013-04-08 02:02:00,73.1,68.0,30.09,NE,53,4.0,8.0,84,0.00,,---,0.00,VWS V14.00,2013-04-08 12:02:00,
2013-04-08 02:07:00,73.1,68.0,30.09,ENE,59,0.0,6.0,84,0.00,,---,0.00,VWS V14.00,2013-04-08 12:07:00,
2013-04-08 02:12:00,73.1,68.0,30.09,ENE,59,0.0,6.0,84,0.00,,---,0.00,VWS V14.00,2013-04-08 12:12:00,
2013-04-08 02:17:00,73.1,68.3,30.08,ENE,59,4.0,6.0,85,0.00,,---,0.00,VWS V14.00,2013-04-08 12:17:00,
2013-04-08 02:22:00,73.1,68.3,30.08,SSE,152,4.0,10.0,85,0.00,,---,0.00,VWS V14.00,2013-04-08 12:22:00,
2013-04-08 02:27:00,73.1,68.3,30.08,North,360,2.0,10.0,85,0.00,,---,0.00,VWS V14.00,2013-04-08 12:27:00,
2013-04-08 02:32:00,73.1,68.3,30.08,NE,53,0.0,0.0,85,0.00,,---,0.00,VWS V14.00,2013-04-08 12:32:00,
2013-04-08 02:37:00,73.1,68.3,30.08,NE,53,0.0,4.0,85,0.00,,---,0.00,VWS V14.00,2013-04-08 12:37:00,
2013-04-08 02:42:00,73.1,68.3,30.08,ENE,76,2.0,6.0,85,0.00,,---,0.00,VWS V14.00,2013-04-08 12:42:00,
2013-04-08 02:47:00,73.0,68.2,30.08,NE,46,2.0,7.0,85,0.00,,---,0.00,VWS V14.00,2013-04-08 12:47:00,
2013-04-08 02:52:00,73.0,68.2,30.08,ENE,68,1.0,11.0,85,0.00,,---,0.00,VWS V14.00,2013-04-08 12:52:00,
2013-04-08 02:57:00,72.9,68.1,30.08,ENE,67,2.0,11.0,85,0.00,,---,0.00,VWS V14.00,2013-04-08 12:57:00,
2013-04-08 03:02:00,72.9,68.1,30.08,ENE,63,2.0,3.0,85,0.00,,---,0.00,VWS V14.00,2013-04-08 13:02:00,
2013-04-08 03:07:00,72.9,68.1,30.08,ENE,63,4.0,6.0,85,0.00,,---,0.00,VWS V14.00,2013-04-08 13:07:00,
2013-04-08 03:12:00,72.8,68.0,30.08,ENE,64,1.0,6.0,85,0.00,,---,0.00,VWS V14.00,2013-04-08 13:12:00,
2013-04-08 03:17:00,72.8,68.0,30.08,ENE,64,3.0,6.0,85,0.00,,---,0.00,VWS V14.00,2013-04-08 13:17:00,
2013-04-08 03:22:00,72.6,67.8,30.07,ENE,63,2.0,6.0,85,0.00,,---,0.00,VWS V14.00,2013-04-08 13:22:00,
2013-04-08 03:27:00,72.6,67.8,30.07,NNE,29,4.0,10.0,85,0.00,,---,0.00,VWS V14.00,2013-04-08 13:27:00,
2013-04-08 03:32:00,72.5,67.7,30.07,NNE,30,0.0,0.0,85,0.00,,---,0.00,VWS V14.00,2013-04-08 13:32:00,
2013-04-08 03:37:00,72.5,67.7,30.07,NNE,32,0.0,3.0,85,0.00,,---,0.00,VWS V14.00,2013-04-08 13:37:00,
2013-04-08 03:42:00,72.5,67.7,30.07,NNE,24,5.0,6.0,85,0.00,,---,0.00,VWS V14.00,2013-04-08 13:42:00,
2013-04-08 03:47:00,72.5,67.7,30.07,NNE,25,1.0,6.0,85,0.00,,---,0.00,VWS V14.00,2013-04-08 13:47:00,
2013-04-08 03:52:00,72.5,67.7,30.07,NNE,26,4.0,6.0,85,0.00,,---,0.00,VWS V14.00,2013-04-08 13:52:00,
2013-04-08 03:57:00,72.4,67.6,30.07,ENE,76,3.0,8.0,85,0.00,,---,0.00,VWS V14.00,2013-04-08 13:57:00,
2013-04-08 04:02:00,72.5,67.7,30.07,ENE,67,8.0,8.0,85,0.00,,---,0.00,VWS V14.00,2013-04-08 14:02:00,
2013-04-08 04:07:00,72.5,67.7,30.07,ENE,66,0.0,8.0,85,0.00,,---,0.00,VWS V14.00,2013-04-08 14:07:00,
2013-04-08 04:12:00,72.6,67.8,30.07,NE,38,6.0,11.0,85,0.00,,---,0.00,VWS V14.00,2013-04-08 14:12:00,
2013-04-08 04:17:00,72.7,67.9,30.07,NE,53,1.0,13.0,85,0.00,,---,0.00,VWS V14.00,2013-04-08 14:17:00,
2013-04-08 04:22:00,72.6,67.8,30.06,NNE,24,6.0,13.0,85,0.00,,---,0.00,VWS V14.00,2013-04-08 14:22:00,
2013-04-08 04:27:00,72.6,67.8,30.06,North,5,0.0,13.0,85,0.00,,---,0.00,VWS V14.00,2013-04-08 14:27:00,
2013-04-08 04:32:00,72.6,67.8,30.07,North,10,0.0,0.0,85,0.00,,---,0.00,VWS V14.00,2013-04-08 14:32:00,
2013-04-08 04:37:00,72.5,67.7,30.07,North,11,0.0,5.0,85,0.00,,---,0.00,VWS V14.00,2013-04-08 14:37:00,
2013-04-08 04:42:00,72.4,67.6,30.07,NNE,12,4.0,5.0,85,0.00,,---,0.00,VWS V14.00,2013-04-08 14:42:00,
2013-04-08 04:47:00,72.3,67.5,30.07,NNE,21,2.0,6.0,85,0.00,,---,0.00,VWS V14.00,2013-04-08 14:47:00,
2013-04-08 04:52:00,72.3,67.5,30.07,NNE,21,0.0,6.0,85,0.00,,---,0.00,VWS V14.00,2013-04-08 14:52:00,
2013-04-08 04:57:00,72.2,67.4,30.07,NNE,21,0.0,6.0,85,0.00,,---,0.00,VWS V14.00,2013-04-08 14:57:00,
2013-04-08 05:02:00,72.2,67.4,30.07,NNE,21,0.0,0.0,85,0.00,,---,0.00,VWS V14.00,2013-04-08 15:02:00,
2013-04-08 05:07:00,72.2,67.4,30.07,NNE,21,2.0,3.0,85,0.00,,---,0.00,VWS V14.00,2013-04-08 15:07:00,
2013-04-08 05:12:00,72.2,67.4,30.07,NNE,21,0.0,3.0,85,0.00,,---,0.00,VWS V14.00,2013-04-08 15:12:00,
2013-04-08 05:17:00,72.1,67.3,30.07,NNE,21,0.0,3.0,85,0.00,,---,0.00,VWS V14.00,2013-04-08 15:17:00,
2013-04-08 05:22:00,72.1,67.3,30.07,NNE,21,0.0,5.0,85,0.00,,---,0.00,VWS V14.00,2013-04-08 15:22:00,
2013-04-08 05:27:00,72.0,67.2,30.07,NNE,21,0.0,5.0,85,0.00,,---,0.00,VWS V14.00,2013-04-08 15:27:00,
2013-04-08 05:32:00,71.9,67.2,30.06,NNE,21,1.0,5.0,85,0.00,,---,0.00,VWS V14.00,2013-04-08 15:32:00,
2013-04-08 05:37:00,71.9,67.2,30.07,SE,130,9.0,9.0,85,0.00,,---,0.00,VWS V14.00,2013-04-08 15:37:00,
2013-04-08 05:42:00,71.9,67.2,30.07,SE,138,4.0,9.0,85,0.00,,---,0.00,VWS V14.00,2013-04-08 15:42:00,
2013-04-08 05:48:00,71.9,67.2,30.07,SE,131,4.0,9.0,85,0.00,,---,0.00,VWS V14.00,2013-04-08 15:48:00,
2013-04-08 05:53:00,72.0,67.2,30.07,SE,129,8.0,9.0,85,0.00,,---,0.00,VWS V14.00,2013-04-08 15:53:00,
2013-04-08 05:58:00,72.2,67.4,30.07,ESE,123,1.0,9.0,85,0.00,,---,0.00,VWS V14.00,2013-04-08 15:58:00,
2013-04-08 06:03:00,72.2,67.4,30.07,SE,128,1.0,4.0,85,0.00,,---,0.00,VWS V14.00,2013-04-08 16:03:00,
2013-04-08 06:08:00,72.2,67.4,30.07,ENE,65,3.0,9.0,85,0.00,,---,0.00,VWS V14.00,2013-04-08 16:08:00,
2013-04-08 06:13:00,72.2,67.4,30.07,SSE,163,4.0,9.0,85,0.00,,---,0.00,VWS V14.00,2013-04-08 16:13:00,
2013-04-08 06:18:00,72.3,67.5,30.07,ESE,113,1.0,9.0,85,0.00,,---,0.00,VWS V14.00,2013-04-08 16:18:00,
2013-04-08 06:23:00,72.2,67.1,30.07,SE,127,1.0,9.0,84,0.00,,---,0.00,VWS V14.00,2013-04-08 16:23:00,
2013-04-08 06:28:00,72.2,67.4,30.07,ESE,115,2.0,9.0,85,0.00,,---,0.00,VWS V14.00,2013-04-08 16:28:00,
2013-04-08 06:33:00,72.2,67.4,30.08,SE,136,4.0,5.0,85,0.00,,---,0.00,VWS V14.00,2013-04-08 16:33:00,
2013-04-08 06:38:00,72.2,67.4,30.08,SE,128,4.0,11.0,85,0.00,,---,0.00,VWS V14.00,2013-04-08 16:38:00,
2013-04-08 06:43:00,72.3,67.2,30.08,East,99,5.0,11.0,84,0.00,,---,0.00,VWS V14.00,2013-04-08 16:43:00,
2013-04-08 06:48:00,72.4,67.3,30.08,ESE,121,4.0,11.0,84,0.00,,---,0.00,VWS V14.00,2013-04-08 16:48:00,
2013-04-08 06:53:00,72.5,67.4,30.08,ESE,115,4.0,13.0,84,0.00,,---,0.00,VWS V14.00,2013-04-08 16:53:00,
2013-04-08 06:58:00,72.6,67.5,30.08,East,88,0.0,13.0,84,0.00,,---,0.00,VWS V14.00,2013-04-08 16:58:00,
2013-04-08 07:03:00,72.7,67.6,30.08,SE,141,5.0,5.0,84,0.00,,---,0.00,VWS V14.00,2013-04-08 17:03:00,
2013-04-08 07:08:00,72.9,67.8,30.08,ESE,113,2.0,8.0,84,0.00,,---,0.00,VWS V14.00,2013-04-08 17:08:00,
2013-04-08 07:13:00,73.1,68.0,30.09,ESE,113,6.0,11.0,84,0.00,,---,0.00,VWS V14.00,2013-04-08 17:13:00,
2013-04-08 07:18:00,73.3,68.2,30.09,East,80,2.0,11.0,84,0.00,,---,0.00,VWS V14.00,2013-04-08 17:18:00,
2013-04-08 07:23:00,73.5,68.0,30.09,SE,132,2.0,11.0,83,0.00,,---,0.00,VWS V14.00,2013-04-08 17:23:00,
2013-04-08 07:28:00,73.6,67.8,30.10,SSE,159,2.0,13.0,82,0.00,,---,0.00,VWS V14.00,2013-04-08 17:28:00,
2013-04-08 07:33:00,73.7,67.9,30.10,SSE,150,2.0,6.0,82,0.00,,---,0.00,VWS V14.00,2013-04-08 17:33:00,
2013-04-08 07:38:00,73.9,68.1,30.10,SSE,163,7.0,9.0,82,0.00,,---,0.00,VWS V14.00,2013-04-08 17:38:00,
2013-04-08 07:43:00,74.1,68.3,30.10,SE,144,0.0,9.0,82,0.00,,---,0.00,VWS V14.00,2013-04-08 17:43:00,
2013-04-08 07:48:00,74.3,68.1,30.10,SE,139,1.0,9.0,81,0.00,,---,0.00,VWS V14.00,2013-04-08 17:48:00,
2013-04-08 07:53:00,74.4,68.2,30.10,SE,140,0.0,9.0,81,0.00,,---,0.00,VWS V14.00,2013-04-08 17:53:00,
2013-04-08 07:58:00,74.7,68.5,30.10,North,360,6.0,9.0,81,0.00,,---,0.00,VWS V14.00,2013-04-08 17:58:00,
2013-04-08 08:03:00,75.0,68.4,30.10,NNE,30,2.0,4.0,80,0.00,,---,0.00,VWS V14.00,2013-04-08 18:03:00,
2013-04-08 08:08:00,75.5,68.5,30.10,NE,38,0.0,8.0,79,0.00,,---,0.00,VWS V14.00,2013-04-08 18:08:00,
2013-04-08 08:13:00,75.6,68.3,30.11,East,80,3.0,8.0,78,0.00,,---,0.00,VWS V14.00,2013-04-08 18:13:00,
2013-04-08 08:18:00,75.6,68.6,30.11,ENE,76,2.0,8.0,79,0.00,,---,0.00,VWS V14.00,2013-04-08 18:18:00,
2013-04-08 08:23:00,75.9,68.9,30.11,ENE,76,0.0,8.0,79,0.00,,---,0.00,VWS V14.00,2013-04-08 18:23:00,
2013-04-08 08:28:00,76.2,68.8,30.11,ESE,107,7.0,8.0,78,0.00,,---,0.00,VWS V14.00,2013-04-08 18:28:00,
2013-04-08 08:33:00,76.6,68.9,30.11,ESE,115,0.0,1.0,77,0.00,,---,0.00,VWS V14.00,2013-04-08 18:33:00,
2013-04-08 08:38:00,77.0,69.2,30.11,ESE,115,2.0,4.0,77,0.00,,---,0.00,VWS V14.00,2013-04-08 18:38:00,
2013-04-08 08:43:00,77.3,68.8,30.11,ESE,120,7.0,7.0,75,0.00,,---,0.00,VWS V14.00,2013-04-08 18:43:00,
2013-04-08 08:48:00,77.2,68.7,30.11,SSE,148,1.0,9.0,75,0.00,,---,0.00,VWS V14.00,2013-04-08 18:48:00,
2013-04-08 08:53:00,77.3,68.8,30.11,SSE,153,2.0,11.0,75,0.00,,---,0.00,VWS V14.00,2013-04-08 18:53:00,
2013-04-08 08:58:00,77.5,69.0,30.11,SSE,153,1.0,11.0,75,0.00,,---,0.00,VWS V14.00,2013-04-08 18:58:00,
2013-04-08 09:03:00,77.6,69.1,30.11,SSE,155,0.0,4.0,75,0.00,,---,0.00,VWS V14.00,2013-04-08 19:03:00,
2013-04-08 09:08:00,77.7,69.2,30.11,North,355,7.0,7.0,75,0.00,,---,0.00,VWS V14.00,2013-04-08 19:08:00,
2013-04-08 09:13:00,77.8,68.9,30.12,North,360,0.0,8.0,74,0.00,,---,0.00,VWS V14.00,2013-04-08 19:13:00,
2013-04-08 09:18:00,77.9,69.3,30.12,North,360,2.0,8.0,75,0.00,,---,0.00,VWS V14.00,2013-04-08 19:18:00,
2013-04-08 09:23:00,78.3,69.3,30.12,ENE,75,0.0,8.0,74,0.00,,---,0.00,VWS V14.00,2013-04-08 19:23:00,
2013-04-08 09:28:00,78.4,69.4,30.11,SE,130,0.0,10.0,74,0.00,,---,0.00,VWS V14.00,2013-04-08 19:28:00,
2013-04-08 09:33:00,78.2,69.2,30.12,ESE,120,4.0,5.0,74,0.00,,---,0.00,VWS V14.00,2013-04-08 19:33:00,
2013-04-08 09:38:00,78.2,69.2,30.12,ENE,64,3.0,8.0,74,0.00,,---,0.00,VWS V14.00,2013-04-08 19:38:00,
2013-04-08 09:43:00,78.1,69.1,30.12,SE,138,0.0,8.0,74,0.00,,---,0.00,VWS V14.00,2013-04-08 19:43:00,
2013-04-08 09:48:00,78.2,69.2,30.12,NNE,25,4.0,11.0,74,0.00,,---,0.00,VWS V14.00,2013-04-08 19:48:00,
2013-04-08 09:53:00,78.2,69.2,30.11,SE,126,5.0,11.0,74,0.00,,---,0.00,VWS V14.00,2013-04-08 19:53:00,
2013-04-08 09:58:00,78.1,68.8,30.11,ESE,117,4.0,11.0,73,0.00,,---,0.00,VWS V14.00,2013-04-08 19:58:00,
2013-04-08 10:03:00,78.2,68.8,30.11,ENE,67,0.0,2.0,73,0.00,,---,0.00,VWS V14.00,2013-04-08 20:03:00,
2013-04-08 10:08:00,78.7,69.3,30.11,ENE,69,1.0,5.0,73,0.00,,---,0.00,VWS V14.00,2013-04-08 20:08:00,
2013-04-08 10:13:00,78.8,69.4,30.11,SE,131,4.0,7.0,73,0.00,,---,0.00,VWS V14.00,2013-04-08 20:13:00,
2013-04-08 10:18:00,78.8,69.0,30.11,SE,131,0.0,7.0,72,0.00,,---,0.00,VWS V14.00,2013-04-08 20:18:00,
2013-04-08 10:23:00,79.0,69.6,30.11,SE,124,4.0,7.0,73,0.00,,---,0.00,VWS V14.00,2013-04-08 20:23:00,
2013-04-08 10:28:00,79.1,69.3,30.11,East,87,3.0,8.0,72,0.00,,---,0.00,VWS V14.00,2013-04-08 20:28:00,
2013-04-08 10:33:00,78.8,69.4,30.11,SE,132,0.0,2.0,73,0.00,,---,0.00,VWS V14.00,2013-04-08 20:33:00,
2013-04-08 10:38:00,79.0,69.2,30.11,East,84,1.0,8.0,72,0.00,,---,0.00,VWS V14.00,2013-04-08 20:38:00,
2013-04-08 10:43:00,78.9,69.5,30.11,ENE,62,1.0,8.0,73,0.00,,---,0.00,VWS V14.00,2013-04-08 20:43:00,
2013-04-08 10:48:00,78.8,69.0,30.11,ENE,59,0.0,8.0,72,0.00,,---,0.00,VWS V14.00,2013-04-08 20:48:00,
2013-04-08 10:53:00,78.9,68.7,30.11,ENE,67,1.0,8.0,71,0.00,,---,0.00,VWS V14.00,2013-04-08 20:53:00,
2013-04-08 10:58:00,79.1,68.9,30.10,SSE,149,0.0,11.0,71,0.00,,---,0.00,VWS V14.00,2013-04-08 20:58:00,
2013-04-08 11:03:00,79.3,69.1,30.10,ENE,76,4.0,4.0,71,0.00,,---,0.00,VWS V14.00,2013-04-08 21:03:00,
2013-04-08 11:08:00,79.2,69.0,30.10,NE,44,1.0,9.0,71,0.00,,---,0.00,VWS V14.00,2013-04-08 21:08:00,
2013-04-08 11:13:00,79.3,69.1,30.10,NE,55,2.0,9.0,71,0.00,,---,0.00,VWS V14.00,2013-04-08 21:13:00,
2013-04-08 11:18:00,79.9,69.7,30.10,SE,139,4.0,9.0,71,0.00,,---,0.00,VWS V14.00,2013-04-08 21:18:00,
2013-04-08 11:23:00,80.2,69.5,30.10,East,85,4.0,9.0,70,0.00,,---,0.00,VWS V14.00,2013-04-08 21:23:00,
2013-04-08 11:28:00,80.0,68.9,30.10,ENE,63,2.0,10.0,69,0.00,,---,0.00,VWS V14.00,2013-04-08 21:28:00,
2013-04-08 11:33:00,79.8,68.7,30.10,East,87,0.0,4.0,69,0.00,,---,0.00,VWS V14.00,2013-04-08 21:33:00,
2013-04-08 11:38:00,80.0,68.9,30.10,East,80,3.0,6.0,69,0.00,,---,0.00,VWS V14.00,2013-04-08 21:38:00,
2013-04-08 11:43:00,79.4,68.8,30.09,NE,34,1.0,9.0,70,0.00,,---,0.00,VWS V14.00,2013-04-08 21:43:00,
2013-04-08 11:48:00,78.8,69.0,30.09,NNE,17,2.0,9.0,72,0.00,,---,0.00,VWS V14.00,2013-04-08 21:48:00,
2013-04-08 11:53:00,78.4,68.6,30.09,NE,38,3.0,9.0,72,0.00,,---,0.00,VWS V14.00,2013-04-08 21:53:00,
2013-04-08 11:58:00,78.5,69.1,30.09,NE,55,2.0,9.0,73,0.00,,---,0.00,VWS V14.00,2013-04-08 21:58:00,
2013-04-08 12:03:00,78.4,68.6,30.09,NE,36,1.0,4.0,72,0.00,,---,0.00,VWS V14.00,2013-04-08 22:03:00,
2013-04-08 12:08:00,78.4,69.0,30.09,ENE,61,3.0,7.0,73,0.00,,---,0.00,VWS V14.00,2013-04-08 22:08:00,
2013-04-08 12:13:00,78.4,68.6,30.09,NE,40,2.0,8.0,72,0.00,,---,0.00,VWS V14.00,2013-04-08 22:13:00,
2013-04-08 12:18:00,78.7,69.3,30.09,NNE,26,5.0,8.0,73,0.00,,---,0.00,VWS V14.00,2013-04-08 22:18:00,
2013-04-08 12:23:00,78.8,69.0,30.09,North,9,7.0,9.0,72,0.00,,---,0.00,VWS V14.00,2013-04-08 22:23:00,
2013-04-08 12:28:00,79.1,68.9,30.09,North,360,5.0,9.0,71,0.00,,---,0.00,VWS V14.00,2013-04-08 22:28:00,
2013-04-08 12:33:00,79.5,69.3,30.09,NNE,19,1.0,6.0,71,0.00,,---,0.00,VWS V14.00,2013-04-08 22:33:00,
2013-04-08 12:38:00,79.7,69.5,30.08,NNE,27,4.0,8.0,71,0.00,,---,0.00,VWS V14.00,2013-04-08 22:38:00,
2013-04-08 12:43:00,79.3,68.7,30.08,NE,46,3.0,11.0,70,0.00,,---,0.00,VWS V14.00,2013-04-08 22:43:00,
2013-04-08 12:48:00,78.7,68.5,30.08,ENE,63,6.0,11.0,71,0.00,,---,0.00,VWS V14.00,2013-04-08 22:48:00,
2013-04-08 12:53:00,78.1,67.9,30.08,NE,38,2.0,11.0,71,0.00,,---,0.00,VWS V14.00,2013-04-08 22:53:00,
2013-04-08 12:58:00,78.0,68.7,30.07,ENE,69,0.0,11.0,73,0.00,,---,0.00,VWS V14.00,2013-04-08 22:58:00,
2013-04-08 13:03:00,78.2,68.4,30.07,North,5,2.0,4.0,72,0.00,,---,0.00,VWS V14.00,2013-04-08 23:03:00,
2013-04-08 13:08:00,77.6,68.3,30.07,NE,38,4.0,11.0,73,0.00,,---,0.00,VWS V14.00,2013-04-08 23:08:00,
2013-04-08 13:13:00,77.2,68.3,30.07,NNE,28,4.0,12.0,74,0.00,,---,0.00,VWS V14.00,2013-04-08 23:13:00,
2013-04-08 13:18:00,76.8,67.9,30.06,East,85,1.0,12.0,74,0.00,,---,0.00,VWS V14.00,2013-04-08 23:18:00,
2013-04-08 13:23:00,77.3,68.4,30.06,NNE,22,1.0,12.0,74,0.00,,---,0.00,VWS V14.00,2013-04-08 23:23:00,
2013-04-08 13:28:00,77.1,68.2,30.06,East,84,3.0,12.0,74,0.00,,---,0.00,VWS V14.00,2013-04-08 23:28:00,
2013-04-08 13:33:00,76.6,67.3,30.05,NE,54,4.0,5.0,73,0.00,,---,0.00,VWS V14.00,2013-04-08 23:33:00,
2013-04-08 13:38:00,77.0,68.5,30.05,NE,55,0.0,5.0,75,0.00,,---,0.00,VWS V14.00,2013-04-08 23:38:00,
2013-04-08 13:43:00,78.1,68.8,30.05,ENE,67,2.0,5.0,73,0.00,,---,0.00,VWS V14.00,2013-04-08 23:43:00,
2013-04-08 13:48:00,78.5,68.7,30.04,NE,38,2.0,7.0,72,0.00,,---,0.00,VWS V14.00,2013-04-08 23:48:00,
2013-04-08 13:53:00,78.7,68.1,30.04,NE,38,1.0,8.0,70,0.00,,---,0.00,VWS V14.00,2013-04-08 23:53:00,
2013-04-08 13:58:00,78.7,68.5,30.04,ENE,61,3.0,8.0,71,0.00,,---,0.00,VWS V14.00,2013-04-08 23:58:00,
2013-04-08 14:03:00,78.7,68.5,30.03,ENE,61,4.0,4.0,71,0.00,,---,0.00,VWS V14.00,2013-04-09 00:03:00,
2013-04-08 14:08:00,79.1,69.3,30.03,NNE,28,4.0,7.0,72,0.00,,---,0.00,VWS V14.00,2013-04-09 00:08:00,
2013-04-08 14:13:00,78.9,69.1,30.03,NNE,20,3.0,10.0,72,0.00,,---,0.00,VWS V14.00,2013-04-09 00:13:00,
2013-04-08 14:18:00,78.6,68.4,30.02,NE,46,3.0,10.0,71,0.00,,---,0.00,VWS V14.00,2013-04-09 00:18:00,
2013-04-08 14:23:00,77.8,68.1,30.02,NE,54,4.0,11.0,72,0.00,,---,0.00,VWS V14.00,2013-04-09 00:23:00,
2013-04-08 14:28:00,77.1,68.2,30.02,NE,46,3.0,11.0,74,0.00,,---,0.00,VWS V14.00,2013-04-09 00:28:00,
2013-04-08 14:33:00,76.9,68.0,30.01,NNE,32,3.0,6.0,74,0.00,,---,0.00,VWS V14.00,2013-04-09 00:33:00,
2013-04-08 14:38:00,77.0,68.9,30.01,NE,54,5.0,10.0,76,0.00,,---,0.00,VWS V14.00,2013-04-09 00:38:00,
2013-04-08 14:43:00,77.2,68.7,30.01,East,90,6.0,10.0,75,0.00,,---,0.00,VWS V14.00,2013-04-09 00:43:00,
2013-04-08 14:48:00,77.5,69.0,30.01,ENE,62,3.0,10.0,75,0.00,,---,0.00,VWS V14.00,2013-04-09 00:48:00,
2013-04-08 14:53:00,77.4,68.5,30.01,ENE,68,5.0,10.0,74,0.00,,---,0.00,VWS V14.00,2013-04-09 00:53:00,
2013-04-08 14:58:00,77.3,68.4,30.01,North,5,7.0,10.0,74,0.00,,---,0.00,VWS V14.00,2013-04-09 00:58:00,
2013-04-08 15:03:00,77.1,68.6,30.00,North,5,3.0,5.0,75,0.00,,---,0.00,VWS V14.00,2013-04-09 01:03:00,
2013-04-08 15:08:00,76.7,67.8,30.00,NE,55,5.0,8.0,74,0.00,,---,0.00,VWS V14.00,2013-04-09 01:08:00,
2013-04-08 15:13:00,76.5,68.4,30.00,NE,38,4.0,8.0,76,0.00,,---,0.00,VWS V14.00,2013-04-09 01:13:00,
2013-04-08 15:18:00,76.5,68.4,30.00,ENE,61,2.0,12.0,76,0.00,,---,0.00,VWS V14.00,2013-04-09 01:18:00,
2013-04-08 15:23:00,76.4,68.3,30.00,North,5,2.0,12.0,76,0.00,,---,0.00,VWS V14.00,2013-04-09 01:23:00,
2013-04-08 15:28:00,76.2,68.1,30.00,NE,35,0.0,12.0,76,0.00,,---,0.00,VWS V14.00,2013-04-09 01:28:00,
2013-04-08 15:33:00,76.5,68.0,30.00,NE,39,3.0,11.0,75,0.00,,---,0.00,VWS V14.00,2013-04-09 01:33:00,
2013-04-08 15:38:00,76.4,67.5,30.00,NE,40,1.0,11.0,74,0.00,,---,0.00,VWS V14.00,2013-04-09 01:38:00,
2013-04-08 15:43:00,76.5,68.0,30.00,NNE,27,0.0,11.0,75,0.00,,---,0.00,VWS V14.00,2013-04-09 01:43:00,
2013-04-08 15:48:00,76.5,68.0,29.99,NNE,27,0.0,11.0,75,0.00,,---,0.00,VWS V14.00,2013-04-09 01:48:00,
2013-04-08 15:53:00,76.8,68.3,29.99,NNE,27,1.0,11.0,75,0.00,,---,0.00,VWS V14.00,2013-04-09 01:53:00,
2013-04-08 15:58:00,77.1,68.6,29.99,NE,50,2.0,11.0,75,0.00,,---,0.00,VWS V14.00,2013-04-09 01:58:00,
2013-04-08 16:03:00,77.1,68.2,29.99,NE,45,2.0,6.0,74,0.00,,---,0.00,VWS V14.00,2013-04-09 02:03:00,
2013-04-08 16:08:00,76.9,68.4,29.99,ESE,110,0.0,13.0,75,0.00,,---,0.00,VWS V14.00,2013-04-09 02:08:00,
2013-04-08 16:13:00,76.9,68.4,29.99,ENE,69,0.0,13.0,75,0.00,,---,0.00,VWS V14.00,2013-04-09 02:13:00,
2013-04-08 16:18:00,77.0,68.5,29.99,North,355,1.0,13.0,75,0.00,,---,0.00,VWS V14.00,2013-04-09 02:18:00,
2013-04-08 16:23:00,77.0,68.1,29.99,ENE,71,0.0,13.0,74,0.00,,---,0.00,VWS V14.00,2013-04-09 02:23:00,
2013-04-08 16:28:00,76.7,68.2,29.99,NE,49,5.0,13.0,75,0.00,,---,0.00,VWS V14.00,2013-04-09 02:28:00,
2013-04-08 16:33:00,76.4,68.3,29.99,NE,51,3.0,5.0,76,0.00,,---,0.00,VWS V14.00,2013-04-09 02:33:00,
2013-04-08 16:38:00,76.5,68.4,29.99,NE,54,1.0,5.0,76,0.00,,---,0.00,VWS V14.00,2013-04-09 02:38:00,
2013-04-08 16:43:00,76.4,67.9,29.99,NE,53,2.0,5.0,75,0.00,,---,0.00,VWS V14.00,2013-04-09 02:43:00,
2013-04-08 16:48:00,76.2,68.1,29.99,East,86,3.0,7.0,76,0.00,,---,0.00,VWS V14.00,2013-04-09 02:48:00,
2013-04-08 16:53:00,76.4,68.3,29.99,NE,45,6.0,7.0,76,0.00,,---,0.00,VWS V14.00,2013-04-09 02:53:00,
2013-04-08 16:58:00,76.4,68.3,29.99,North,11,2.0,8.0,76,0.00,,---,0.00,VWS V14.00,2013-04-09 02:58:00,
2013-04-08 17:03:00,76.4,68.3,29.99,North,9,3.0,5.0,76,0.00,,---,0.00,VWS V14.00,2013-04-09 03:03:00,
2013-04-08 17:08:00,76.3,68.2,30.00,NNW,338,1.0,7.0,76,0.00,,---,0.00,VWS V14.00,2013-04-09 03:08:00,
2013-04-08 17:13:00,76.1,68.0,30.00,NNE,19,0.0,7.0,76,0.00,,---,0.00,VWS V14.00,2013-04-09 03:13:00,
2013-04-08 17:18:00,76.3,68.6,30.00,NE,36,0.0,7.0,77,0.00,,---,0.00,VWS V14.00,2013-04-09 03:18:00,
2013-04-08 17:23:00,76.2,68.1,30.00,NE,37,2.0,7.0,76,0.00,,---,0.00,VWS V14.00,2013-04-09 03:23:00,
2013-04-08 17:28:00,75.9,67.8,30.00,NE,37,0.0,7.0,76,0.00,,---,0.00,VWS V14.00,2013-04-09 03:28:00,
2013-04-08 17:33:00,75.7,67.6,30.00,NE,44,4.0,4.0,76,0.00,,---,0.00,VWS V14.00,2013-04-09 03:33:00,
2013-04-08 17:38:00,75.5,67.4,30.01,NNE,31,0.0,5.0,76,0.00,,---,0.00,VWS V14.00,2013-04-09 03:38:00,
2013-04-08 17:43:00,75.4,67.3,30.01,NE,40,2.0,6.0,76,0.00,,---,0.00,VWS V14.00,2013-04-09 03:43:00,
2013-04-08 17:48:00,75.3,67.6,30.01,NE,38,4.0,6.0,77,0.00,,---,0.00,VWS V14.00,2013-04-09 03:48:00,
2013-04-08 17:53:00,75.2,67.1,30.01,NE,38,2.0,6.0,76,0.00,,---,0.00,VWS V14.00,2013-04-09 03:53:00,
2013-04-08 17:58:00,75.1,67.4,30.01,NE,38,1.0,6.0,77,0.00,,---,0.00,VWS V14.00,2013-04-09 03:58:00,
2013-04-08 18:00:00,75.1,67.4,30.01,NE,38,0.0,6.0,77,0.00,,---,0.00,VWS V14.00,2013-04-09 04:00:00,
2013-04-08 18:05:00,75.1,67.4,30.01,NE,38,0.0,6.0,77,0.00,,---,0.00,VWS V14.00,2013-04-09 04:05:00,
2013-04-08 18:10:00,75.0,66.9,30.01,NE,36,0.0,6.0,76,0.00,,---,0.00,VWS V14.00,2013-04-09 04:10:00,
2013-04-08 18:15:00,74.9,67.2,30.02,NE,36,3.0,6.0,77,0.00,,---,0.00,VWS V14.00,2013-04-09 04:15:00,
2013-04-08 18:20:00,75.0,67.3,30.02,NE,35,0.0,6.0,77,0.00,,---,0.00,VWS V14.00,2013-04-09 04:20:00,
2013-04-08 18:25:00,74.9,67.6,30.02,NE,35,0.0,6.0,78,0.00,,---,0.00,VWS V14.00,2013-04-09 04:25:00,
2013-04-08 18:30:00,74.9,67.6,30.02,NE,37,4.0,6.0,78,0.00,,---,0.00,VWS V14.00,2013-04-09 04:30:00,
2013-04-08 18:35:00,74.8,67.5,30.02,NE,37,2.0,4.0,78,0.00,,---,0.00,VWS V14.00,2013-04-09 04:35:00,
2013-04-08 18:40:00,74.7,67.8,30.03,NE,37,0.0,5.0,79,0.00,,---,0.00,VWS V14.00,2013-04-09 04:40:00,
2013-04-08 18:45:00,74.6,67.7,30.03,NE,37,0.0,5.0,79,0.00,,---,0.00,VWS V14.00,2013-04-09 04:45:00,
2013-04-08 18:50:00,74.5,67.9,30.03,NE,38,3.0,5.0,80,0.00,,---,0.00,VWS V14.00,2013-04-09 04:50:00,
2013-04-08 18:55:00,74.4,67.8,30.04,NE,38,0.0,5.0,80,0.00,,---,0.00,VWS V14.00,2013-04-09 04:55:00,
2013-04-08 19:00:00,74.3,67.7,30.04,NE,38,3.0,5.0,80,0.00,,---,0.00,VWS V14.00,2013-04-09 05:00:00,
2013-04-08 19:05:00,74.2,67.6,30.04,NE,35,2.0,5.0,80,0.00,,---,0.00,VWS V14.00,2013-04-09 05:05:00,
2013-04-08 19:10:00,74.2,68.0,30.04,NE,38,2.0,7.0,81,0.00,,---,0.00,VWS V14.00,2013-04-09 05:10:00,
2013-04-08 19:15:00,74.2,68.4,30.04,NE,38,2.0,7.0,82,0.00,,---,0.00,VWS V14.00,2013-04-09 05:15:00,
2013-04-08 19:20:00,74.1,68.3,30.04,NE,38,4.0,7.0,82,0.00,,---,0.00,VWS V14.00,2013-04-09 05:20:00,
2013-04-08 19:25:00,74.0,68.2,30.04,NE,40,1.0,7.0,82,0.00,,---,0.00,VWS V14.00,2013-04-09 05:25:00,
2013-04-08 19:30:00,73.9,68.4,30.05,NE,40,0.0,7.0,83,0.00,,---,0.00,VWS V14.00,2013-04-09 05:30:00,
2013-04-08 19:35:00,73.8,68.3,30.05,NE,40,1.0,3.0,83,0.00,,---,0.00,VWS V14.00,2013-04-09 05:35:00,
2013-04-08 19:40:00,73.7,68.2,30.05,NE,44,3.0,6.0,83,0.00,,---,0.00,VWS V14.00,2013-04-09 05:40:00,
2013-04-08 19:45:00,73.7,68.2,30.05,NE,53,2.0,6.0,83,0.00,,---,0.00,VWS V14.00,2013-04-09 05:45:00,
2013-04-08 19:50:00,73.7,68.2,30.05,NE,54,1.0,6.0,83,0.00,,---,0.00,VWS V14.00,2013-04-09 05:50:00,
2013-04-08 19:55:00,73.7,68.2,30.05,NE,46,0.0,10.0,83,0.00,,---,0.00,VWS V14.00,2013-04-09 05:55:00,
2013-04-08 20:00:00,73.7,68.2,30.05,NE,42,2.0,10.0,83,0.00,,---,0.00,VWS V14.00,2013-04-09 06:00:00,
2013-04-08 20:05:00,73.7,68.2,30.05,NE,40,0.0,6.0,83,0.00,,---,0.00,VWS V14.00,2013-04-09 06:05:00,
2013-04-08 20:10:00,73.7,68.2,30.05,NE,38,1.0,6.0,83,0.00,,---,0.00,VWS V14.00,2013-04-09 06:10:00,
2013-04-08 20:15:00,73.7,68.2,30.06,NE,43,1.0,6.0,83,0.00,,---,0.00,VWS V14.00,2013-04-09 06:15:00,
2013-04-08 20:20:00,73.7,68.2,30.06,NE,43,1.0,6.0,83,0.00,,---,0.00,VWS V14.00,2013-04-09 06:20:00,
2013-04-08 20:25:00,73.7,68.2,30.06,NE,38,0.0,8.0,83,0.00,,---,0.00,VWS V14.00,2013-04-09 06:25:00,
2013-04-08 20:30:00,73.7,68.2,30.06,NE,38,0.0,8.0,83,0.00,,---,0.00,VWS V14.00,2013-04-09 06:30:00,
2013-04-08 20:35:00,73.7,68.2,30.06,NE,38,0.0,3.0,83,0.00,,---,0.00,VWS V14.00,2013-04-09 06:35:00,
2013-04-08 20:40:00,73.6,68.1,30.06,NNE,30,3.0,6.0,83,0.00,,---,0.00,VWS V14.00,2013-04-09 06:40:00,
2013-04-08 20:45:00,73.6,68.1,30.07,NNE,30,0.0,6.0,83,0.00,,---,0.00,VWS V14.00,2013-04-09 06:45:00,
2013-04-08 20:50:00,73.7,68.2,30.07,NNE,30,3.0,6.0,83,0.00,,---,0.00,VWS V14.00,2013-04-09 06:50:00,
2013-04-08 20:55:00,73.7,68.6,30.07,NNE,32,0.0,6.0,84,0.00,,---,0.00,VWS V14.00,2013-04-09 06:55:00,
2013-04-08 21:00:00,73.7,68.6,30.07,NE,34,3.0,7.0,84,0.00,,---,0.00,VWS V14.00,2013-04-09 07:00:00,
2013-04-08 21:05:00,73.8,68.7,30.08,NE,34,3.0,6.0,84,0.00,,---,0.00,VWS V14.00,2013-04-09 07:05:00,
2013-04-08 21:10:00,73.8,68.7,30.08,NE,35,0.0,6.0,84,0.00,,---,0.00,VWS V14.00,2013-04-09 07:10:00,
2013-04-08 21:15:00,73.7,68.6,30.08,NNE,22,1.0,7.0,84,0.00,,---,0.00,VWS V14.00,2013-04-09 07:15:00,
2013-04-08 21:20:00,73.7,68.6,30.08,NNE,22,0.0,7.0,84,0.00,,---,0.00,VWS V14.00,2013-04-09 07:20:00,
2013-04-08 21:25:00,73.7,68.2,30.08,East,80,5.0,12.0,83,0.00,,---,0.00,VWS V14.00,2013-04-09 07:25:00,
2013-04-08 21:30:00,73.6,67.8,30.08,SE,141,1.0,12.0,82,0.00,,---,0.00,VWS V14.00,2013-04-09 07:30:00,
2013-04-08 21:35:00,73.6,67.8,30.08,ENE,74,3.0,7.0,82,0.00,,---,0.00,VWS V14.00,2013-04-09 07:35:00,
2013-04-08 21:40:00,73.6,67.4,30.09,ENE,68,2.0,7.0,81,0.00,,---,0.00,VWS V14.00,2013-04-09 07:40:00,
2013-04-08 21:45:00,73.5,67.0,30.09,ENE,69,1.0,7.0,80,0.00,,---,0.00,VWS V14.00,2013-04-09 07:45:00,
2013-04-08 21:50:00,73.6,67.1,30.09,ENE,67,0.0,7.0,80,0.00,,---,0.00,VWS V14.00,2013-04-09 07:50:00,
2013-04-08 21:55:00,73.6,67.1,30.09,ENE,67,0.0,7.0,80,0.00,,---,0.00,VWS V14.00,2013-04-09 07:55:00,
2013-04-08 22:00:00,73.7,67.2,30.09,ENE,65,4.0,7.0,80,0.00,,---,0.00,VWS V14.00,2013-04-09 08:00:00,
2013-04-08 22:05:00,73.8,67.2,30.09,ENE,57,0.0,4.0,80,0.00,,---,0.00,VWS V14.00,2013-04-09 08:05:00,
2013-04-08 22:10:00,73.9,67.3,30.09,ENE,57,1.0,4.0,80,0.00,,---,0.00,VWS V14.00,2013-04-09 08:10:00,
2013-04-08 22:15:00,73.8,67.2,30.09,ENE,57,6.0,6.0,80,0.00,,---,0.00,VWS V14.00,2013-04-09 08:15:00,
2013-04-08 22:20:00,73.8,67.2,30.09,NE,56,7.0,10.0,80,0.00,,---,0.00,VWS V14.00,2013-04-09 08:20:00,
2013-04-08 22:25:00,73.8,67.2,30.09,ENE,63,0.0,10.0,80,0.00,,---,0.00,VWS V14.00,2013-04-09 08:25:00,
2013-04-08 22:30:00,73.7,67.2,30.09,ENE,63,2.0,10.0,80,0.00,,---,0.00,VWS V14.00,2013-04-09 08:30:00,
2013-04-08 22:35:00,73.6,67.1,30.09,ENE,67,1.0,5.0,80,0.00,,---,0.00,VWS V14.00,2013-04-09 08:35:00,
2013-04-08 22:40:00,73.5,66.6,30.09,ENE,67,0.0,5.0,79,0.00,,---,0.00,VWS V14.00,2013-04-09 08:40:00,
2013-04-08 22:45:00,73.4,66.5,30.09,ENE,67,0.0,5.0,79,0.00,,---,0.00,VWS V14.00,2013-04-09 08:45:00,
2013-04-08 22:50:00,73.4,66.9,30.09,ENE,67,0.0,5.0,80,0.00,,---,0.00,VWS V14.00,2013-04-09 08:50:00,
2013-04-08 22:55:00,73.4,66.9,30.09,NNE,30,1.0,9.0,80,0.00,,---,0.00,VWS V14.00,2013-04-09 08:55:00,
2013-04-08 23:00:00,73.5,67.0,30.09,NE,34,1.0,9.0,80,0.00,,---,0.00,VWS V14.00,2013-04-09 09:00:00,
2013-04-08 23:05:00,73.5,67.0,30.09,NE,34,2.0,4.0,80,0.00,,---,0.00,VWS V14.00,2013-04-09 09:05:00,
2013-04-08 23:10:00,73.6,67.4,30.09,NE,34,4.0,4.0,81,0.00,,---,0.00,VWS V14.00,2013-04-09 09:10:00,
2013-04-08 23:15:00,73.6,67.4,30.09,NE,35,1.0,5.0,81,0.00,,---,0.00,VWS V14.00,2013-04-09 09:15:00,
2013-04-08 23:20:00,73.6,67.4,30.09,NE,35,0.0,5.0,81,0.00,,---,0.00,VWS V14.00,2013-04-09 09:20:00,
2013-04-08 23:25:00,73.6,67.4,30.08,NE,36,3.0,6.0,81,0.00,,---,0.00,VWS V14.00,2013-04-09 09:25:00,
2013-04-08 23:30:00,73.5,67.3,30.08,NE,55,0.0,6.0,81,0.00,,---,0.00,VWS V14.00,2013-04-09 09:30:00,
2013-04-08 23:35:00,73.4,67.2,30.08,NE,55,3.0,4.0,81,0.00,,---,0.00,VWS V14.00,2013-04-09 09:35:00,
2013-04-08 23:40:00,73.4,67.2,30.08,NE,55,0.0,5.0,81,0.00,,---,0.00,VWS V14.00,2013-04-09 09:40:00,
2013-04-08 23:45:00,73.3,67.1,30.08,NE,38,0.0,8.0,81,0.00,,---,0.00,VWS V14.00,2013-04-09 09:45:00,
2013-04-08 23:50:00,73.3,67.1,30.08,NE,55,1.0,8.0,81,0.00,,---,0.00,VWS V14.00,2013-04-09 09:50:00,
2013-04-08 23:55:00,73.3,66.8,30.08,NE,44,2.0,8.0,80,0.00,,---,0.00,VWS V14.00,2013-04-09 09:55:00,